#timestamp,LO_Frequency,Hit 
1498384815.4,286047046.1,N
1498384835.2,286047050.6,N
1498384855.0,286047055.3,N
1498384856.0,286047055.3,N
1498384875.8,286047050.3,N
1498384895.6,286047041.7,N
1498384915.4,286047048.9,N
1498384935.3,286047047.5,N
1498384955.1,286047048.7,N
1498384975.8,286047043.8,N
1498384995.7,286047051.5,N
1498385015.5,286047054.9,N
1498385035.3,286047049.6,N
1498385055.2,286047037.5,N
1498385075.9,286047039.5,N
1498385095.7,286047036.6,N
1498385115.6,286047037.6,N
1498385135.4,286047038.4,N
1498385155.2,286047038.6,N
1498385175.0,286047036.1,N
1498385175.9,286047036.1,N
1498385195.8,286047036.7,N
1498385215.6,286047038.2,N
1498385235.4,286047034.6,N
1498385255.3,286047029.8,N
1498385275.1,286047019.2,N
1498385295.8,286047011.6,N
1498385315.7,286047006.7,N
1498385335.5,286047005.7,N
1498385355.3,286047000.2,N
1498385375.2,286046995.3,N
1498385395.9,286046992.5,N
1498385415.7,286046987.5,N
1498385435.6,286046986.3,N
1498385455.4,286046982.4,N
1498385475.2,286046980.9,N
1498385495.0,286046979.8,N
1498385496.0,286046979.8,N
1498385515.8,286046976.5,N
1498385535.6,286046971.4,N
1498385555.4,286046967.9,N
1498385575.3,286046965.5,N
1498385595.1,286046960.4,N
1498385615.8,286046958.3,N
1498385635.7,286046955.3,N
1498385655.5,286046952.5,N
1498385675.3,286046950.2,N
1498385695.2,286046947.4,N
1498385715.9,286046945.6,N
1498385735.7,286046940.6,N
1498385755.6,286046943.5,N
1498385775.4,286046941.3,N
1498385795.2,286046939.4,N
1498385815.0,286046939.8,N
1498385815.9,286046939.8,N
1498385835.8,286046939.9,N
1498385855.6,286046936.2,N
1498385875.4,286046935.0,N
1498385895.3,286046931.2,N
1498385915.1,286046929.5,N
1498385935.8,286046927.9,N
1498385955.7,286046927.0,N
1498385975.5,286046924.6,N
1498385995.3,286046924.7,N
1498386015.2,286046925.5,N
1498386035.9,286046921.4,N
1498386055.7,286046920.1,N
1498386075.6,286046922.2,N
1498386095.4,286046922.5,N
1498386115.2,286046920.0,N
1498386135.0,286046919.6,N
1498386136.0,286046919.6,N
1498386155.8,286046917.3,N
1498386175.6,286046915.6,N
1498386195.4,286046914.6,N
1498386215.3,286046910.6,N
1498386235.1,286046910.4,N
1498386255.8,286046908.7,N
1498386275.7,286046909.2,N
1498386295.5,286046907.1,N
1498386315.3,286046908.4,N
1498386335.2,286046905.9,N
1498386355.9,286046906.8,N
1498386375.7,286046904.0,N
1498386395.6,286046904.2,N
1498386415.4,286046905.1,N
1498386435.2,286046899.0,N
1498386455.0,286046898.2,N
1498386455.9,286046898.2,N
1498386475.8,286046898.8,N
1498386495.6,286046896.6,N
1498386515.4,286046894.7,N
1498386535.3,286046894.9,N
1498386555.1,286046892.7,N
1498386575.8,286046891.0,N
1498386595.7,286046891.5,N
1498386615.5,286046891.9,N
1498386635.3,286046889.6,N
1498386655.2,286046887.8,N
1498386675.9,286046888.0,N
1498386695.7,286046886.8,N
1498386715.6,286046887.4,N
1498386735.4,286046886.4,N
1498386755.2,286046887.5,N
1498386775.0,286046885.9,N
1498386775.9,286046885.9,N
1498386795.8,286046883.3,N
1498386815.6,286046883.5,N
1498386835.4,286046882.6,N
1498386855.3,286046882.6,N
1498386875.1,286046879.5,N
1498386895.8,286046876.8,N
1498386915.7,286046878.8,N
1498386935.5,286046877.3,N
1498386955.3,286046877.2,N
1498386975.2,286046879.6,N
1498386995.9,286046877.6,N
1498387015.7,286046877.5,N
1498387035.5,286046875.1,N
1498387055.4,286046873.4,N
1498387075.2,286046876.1,N
1498387095.0,286046874.2,N
1498387095.9,286046874.2,N
1498387115.8,286046874.3,N
1498387135.6,286046873.5,N
1498387155.4,286046874.4,N
1498387175.3,286046872.5,N
1498387195.1,286046872.8,N
1498387215.8,286046873.1,N
1498387235.7,286046873.1,N
1498387255.5,286046870.7,N
1498387275.3,286046869.6,N
1498387295.2,286046869.1,N
1498387315.9,286046869.3,N
1498387335.7,286046866.4,N
1498387355.6,286046866.3,N
1498387375.4,286046866.8,N
1498387395.2,286046866.8,N
1498387415.0,286046866.8,N
1498387415.9,286046866.8,N
1498387435.8,286046864.2,N
1498387455.6,286046864.4,N
1498387475.4,286046862.8,N
1498387495.3,286046862.8,N
1498387515.1,286046863.4,N
1498387535.8,286046861.9,N
1498387555.7,286046859.0,N
1498387575.5,286046861.4,N
1498387595.3,286046859.8,N
1498387615.2,286046860.0,N
1498387635.9,286046860.2,N
1498387655.7,286046859.2,N
1498387675.6,286046859.9,N
1498387695.4,286046858.7,N
1498387715.2,286046858.0,N
1498387735.0,286046858.4,N
1498387735.9,286046858.4,N
1498387755.8,286046855.8,N
1498387775.6,286046856.6,N
1498387795.4,286046857.2,N
1498387815.3,286046854.3,N
1498387835.1,286046854.4,N
1498387855.8,286046851.0,N
1498387875.7,286046852.1,N
1498387895.5,286046851.0,N
1498387915.3,286046852.1,N
1498387935.2,286046851.6,N
1498387955.9,286046849.7,N
1498387975.7,286046849.3,N
1498387995.6,286046849.8,N
1498388015.4,286046850.7,N
1498388035.2,286046848.4,N
1498388055.0,286046849.2,N
1498388056.0,286046849.2,N
1498388075.8,286046848.4,N
1498388095.6,286046846.7,N
1498388115.4,286046847.1,N
1498388135.3,286046845.2,N
1498388155.1,286046845.7,N
1498388175.8,286046844.9,N
1498388195.7,286046842.9,N
1498388215.5,286046841.3,N
1498388235.3,286046841.9,N
1498388255.2,286046841.5,N
1498388275.9,286046841.4,N
1498388295.7,286046840.9,N
1498388315.6,286046838.6,N
1498388335.4,286046838.3,N
1498388355.2,286046839.3,N
1498388375.0,286046838.4,N
1498388375.9,286046838.4,N
1498388395.8,286046839.5,N
